AC5JC-1 Weather Reports


Display with metric or nautical units.
time (UTC)temp
F
wind
direction
speed
MPH
gust
MPH
rain 1hr
in
rain 24hr
in
rain mn
in
humidity
%
barometer
mb
20260906143035 87 176 1.0 1.0 0.00 0.00 0.00 69 1014.8
20260906142534 87 173 0.0 1.0 0.00 0.00 0.00 69 1015.0
20260906142033 87 149 0.0 1.0 0.00 0.00 0.00 70 1014.9
20260906141616 87 171 0.0 1.0 0.00 0.00 0.00 71 1014.9
20260906141056 86 148 0.0 1.0 0.00 0.00 0.00 72 1014.9
20260906140535 86 155 0.0 1.0 0.00 0.00 0.00 72 1014.9
20260906140035 86 160 0.0 1.0 0.00 0.00 0.00 72 1014.9
20260906135534 86 118 1.0 5.0 0.00 0.00 0.00 72 1014.9
20260906135035 86 146 1.0 2.0 0.00 0.00 0.00 72 1014.9
20260906134522 85 135 0.0 1.0 0.00 0.00 0.00 73 1014.9
20260906134104 85 148 1.0 3.0 0.00 0.00 0.00 74 1015.0
20260906133544 84 149 1.0 1.0 0.00 0.00 0.00 75 1015.2
20260906133035 83 154 1.0 2.0 0.00 0.00 0.00 76 1015.0
20260906132534 83 162 1.0 3.0 0.00 0.00 0.00 77 1015.0
20260906132054 81 167 0.0 1.0 0.00 0.00 0.00 80 1015.1
20260906131529 79 174 0.0 1.0 0.00 0.00 0.00 84 1015.0
20260906131112 77 0.0 0.0 0.00 0.00 0.00 87 1014.9
20260906130552 77 0.0 0.0 0.00 0.00 0.00 88 1014.9
20260906130034 76 0.0 0.0 0.00 0.00 0.00 89 1014.7
20260906125529 76 0.0 0.0 0.00 0.00 0.00 89 1014.7
20260906125113 76 0.0 0.0 0.00 0.00 0.00 89 1014.6
20260906124552 76 0.0 0.0 0.00 0.00 0.00 88 1014.6
20260906124034 76 0.0 0.0 0.00 0.00 0.00 88 1014.6
20260906123534 76 0.0 0.0 0.00 0.00 0.00 88 1014.6
20260906123034 76 0.0 0.0 0.00 0.00 0.00 88 1014.6
20260906122554 76 0.0 0.0 0.00 0.00 0.00 88 1014.5
20260906122034 76 0.0 0.0 0.00 0.00 0.00 88 1014.4
20260906121530 76 174 0.0 1.0 0.00 0.00 0.00 88 1014.4
20260906121112 76 0.0 0.0 0.00 0.00 0.00 88 1014.3
20260906120613 76 0.0 0.0 0.00 0.00 0.00 88 1014.2
20260906120055 76 0.0 0.0 0.00 0.00 0.00 88 1014.3
20260906115534 76 0.0 0.0 0.00 0.00 0.00 87 1014.2
20260906115054 76 174 0.0 1.0 0.00 0.00 0.00 87 1014.1
20260906114535 76 175 0.0 1.0 0.00 0.00 0.00 87 1014.0
20260906114120 77 0.0 0.0 0.00 0.00 0.00 87 1014.1
20260906113600 77 0.0 0.0 0.00 0.00 0.00 87 1014.1
20260906113055 76 176 0.0 1.0 0.00 0.00 0.00 87 1014.0
20260906112534 76 0.0 0.0 0.00 0.00 0.00 87 1014.0
20260906112034 76 0.0 0.0 0.00 0.00 0.00 87 1014.0
20260906111535 77 0.0 0.0 0.00 0.00 0.00 87 1013.9
20260906111025 77 0.0 0.0 0.00 0.00 0.00 87 1014.0
20260906110609 77 178 0.0 1.0 0.00 0.00 0.00 86 1013.9
20260906110110 77 0.0 0.0 0.00 0.00 0.00 86 1013.9
20260906105534 77 0.0 0.0 0.00 0.00 0.00 86 1013.8
20260906105034 77 178 0.0 1.0 0.00 0.00 0.00 86 1013.7
20260906104534 77 178 0.0 1.0 0.00 0.00 0.00 86 1013.5
20260906104033 77 178 0.0 1.0 0.00 0.00 0.00 86 1013.7
20260906103618 77 178 0.0 1.0 0.00 0.00 0.00 86 1013.7
20260906103056 77 178 0.0 1.0 0.00 0.00 0.00 86 1013.6
20260906102534 77 178 0.0 1.0 0.00 0.00 0.00 85 1013.7
20260906102034 77 0.0 0.0 0.00 0.00 0.00 85 1013.7
20260906101535 78 0.0 0.0 0.00 0.00 0.00 85 1013.6
20260906101054 78 178 0.0 1.0 0.00 0.00 0.00 85 1013.6
20260906100614 78 178 0.0 1.0 0.00 0.00 0.00 85 1013.5
20260906100034 78 0.0 0.0 0.00 0.00 0.00 85 1013.5
20260906095616 78 178 0.0 1.0 0.00 0.00 0.00 85 1013.5
20260906095057 78 178 0.0 1.0 0.00 0.00 0.00 85 1013.5
20260906094535 78 0.0 0.0 0.00 0.00 0.00 85 1013.5
20260906094034 78 0.0 0.0 0.00 0.00 0.00 84 1013.4
20260906093534 78 178 0.0 1.0 0.00 0.00 0.00 84 1013.4
20260906093026 78 0.0 0.0 0.00 0.00 0.00 84 1013.4
20260906092608 78 178 0.0 1.0 0.00 0.00 0.00 84 1013.2
20260906092108 78 0.0 0.0 0.00 0.00 0.00 84 1013.2
20260906091550 78 178 0.0 1.0 0.00 0.00 0.00 84 1013.2
20260906091112 79 178 0.0 1.0 0.00 0.00 0.00 83 1013.1
20260906090613 79 179 0.0 1.0 0.00 0.00 0.00 83 1013.0
20260906090034 79 181 0.0 1.0 0.00 0.00 0.00 83 1013.0
20260906085529 79 181 0.0 1.0 0.00 0.00 0.00 84 1012.9
20260906085112 79 0.0 0.0 0.00 0.00 0.00 83 1012.9
20260906084552 79 0.0 0.0 0.00 0.00 0.00 83 1013.0
20260906084033 80 0.0 0.0 0.00 0.00 0.00 82 1013.0
20260906083617 80 182 0.0 1.0 0.00 0.00 0.00 81 1013.1
20260906083035 80 182 0.0 1.0 0.00 0.00 0.00 81 1013.1
20260906082541 80 182 0.0 1.0 0.00 0.00 0.00 82 1013.0
20260906082105 80 182 0.0 1.0 0.00 0.00 0.00 81 1013.0
20260906081545 80 0.0 0.0 0.00 0.00 0.00 81 1012.9
20260906081034 80 183 1.0 2.0 0.00 0.00 0.00 80 1012.9
20260906080521 80 180 1.0 1.0 0.00 0.00 0.00 80 1012.8
20260906080105 80 179 1.0 1.0 0.00 0.00 0.00 80 1013.0
20260906075544 80 179 1.0 1.0 0.00 0.00 0.00 80 1013.1
20260906075025 80 179 1.0 1.0 0.00 0.00 0.00 80 1013.3
20260906074628 80 178 0.0 1.0 0.00 0.00 0.00 81 1013.4
20260906074048 80 178 0.0 1.0 0.00 0.00 0.00 81 1013.4
20260906073529 80 178 0.0 1.0 0.00 0.00 0.00 81 1013.5
20260906073112 80 0.0 0.0 0.00 0.00 0.00 81 1013.5
20260906072552 80 0.0 0.0 0.00 0.00 0.00 82 1013.4
20260906072033 80 178 0.0 1.0 0.00 0.00 0.00 82 1013.3
20260906071617 80 178 0.0 1.0 0.00 0.00 0.00 82 1013.2
20260906071056 80 0.0 0.0 0.00 0.00 0.00 82 1013.2
20260906070534 80 0.0 0.0 0.00 0.00 0.00 81 1013.1
20260906070121 80 0.0 0.0 0.00 0.00 0.00 82 1013.1
20260906065600 80 0.0 0.0 0.00 0.00 0.00 82 1013.4
20260906065034 80 0.0 0.0 0.00 0.00 0.00 81 1013.4
20260906064534 80 0.0 0.0 0.00 0.00 0.00 81 1013.5
20260906064121 80 0.0 0.0 0.00 0.00 0.00 81 1013.6
20260906063600 80 0.0 0.0 0.00 0.00 0.00 80 1013.6
20260906063034 80 0.0 0.0 0.00 0.00 0.00 80 1013.5
20260906062534 81 0.0 0.0 0.00 0.00 0.00 79 1013.6
20260906062033 81 0.0 0.0 0.00 0.00 0.00 78 1013.5
20260906061616 81 178 0.0 1.0 0.00 0.00 0.00 77 1013.4
20260906061057 82 178 0.0 1.0 0.00 0.00 0.00 77 1013.5
20260906060535 82 178 0.0 1.0 0.00 0.00 0.00 76 1013.5
20260906060121 82 178 0.0 1.0 0.00 0.00 0.00 75 1013.6
20260906055601 83 178 1.0 1.0 0.00 0.00 0.00 75 1013.6
20260906055040 83 177 1.0 1.0 0.00 0.00 0.00 74 1013.7
20260906054535 83 174 1.0 1.0 0.00 0.00 0.00 74 1013.6
20260906054034 83 174 1.0 1.0 0.00 0.00 0.00 74 1013.7
20260906053535 83 174 0.0 1.0 0.00 0.00 0.00 73 1013.6
20260906053026 83 174 0.0 1.0 0.00 0.00 0.00 73 1013.6
20260906052609 83 174 0.0 1.0 0.00 0.00 0.00 74 1013.6
20260906052049 82 174 0.0 1.0 0.00 0.00 0.00 74 1013.6
20260906051535 82 0.0 0.0 0.00 0.00 0.00 75 1013.7
20260906051034 82 0.0 0.0 0.00 0.00 0.00 75 1013.7
20260906050555 82 0.0 0.0 0.00 0.00 0.00 74 1013.6
20260906050118 83 0.0 0.0 0.00 0.00 0.00 73 1013.7
20260906045555 83 0.0 0.0 0.00 0.00 0.00 72 1013.6
20260906045034 84 0.0 0.0 0.00 0.00 0.00 72 1013.6
20260906044535 84 0.0 0.0 0.00 0.00 0.00 71 1013.5
20260906044034 84 174 0.0 1.0 0.00 0.00 0.00 71 1013.5
20260906043534 84 170 0.0 1.0 0.00 0.00 0.00 71 1013.4
20260906043035 84 0.0 0.0 0.00 0.00 0.00 71 1013.5
20260906042534 85 0.0 0.0 0.00 0.00 0.00 70 1013.4
20260906042055 85 178 1.0 2.0 0.00 0.00 0.00 70 1013.4
20260906041535 85 178 0.0 1.0 0.00 0.00 0.00 69 1013.5
20260906041035 85 176 0.0 1.0 0.00 0.00 0.00 69 1013.4
20260906040534 85 174 0.0 1.0 0.00 0.00 0.00 68 1013.3
20260906040035 86 166 0.0 2.0 0.00 0.00 0.00 68 1013.4
20260906035535 86 186 0.0 2.0 0.00 0.00 0.00 67 1013.5
20260906035034 86 174 1.0 2.0 0.00 0.00 0.00 66 1013.4
20260906034535 86 179 1.0 2.0 0.00 0.00 0.00 66 1013.4
20260906034034 86 173 0.0 1.0 0.00 0.00 0.00 66 1013.4
20260906033534 87 173 1.0 2.0 0.00 0.00 0.00 65 1013.4
20260906033034 87 179 1.0 1.0 0.00 0.00 0.00 65 1013.4
20260906032535 87 177 0.0 1.0 0.00 0.00 0.00 64 1013.5
20260906032035 87 181 1.0 2.0 0.00 0.00 0.00 63 1013.4
20260906031535 87 178 1.0 2.0 0.00 0.00 0.00 63 1013.3
20260906031035 87 186 1.0 2.0 0.00 0.00 0.00 63 1013.2
20260906030534 88 174 1.0 3.0 0.00 0.00 0.00 63 1013.3
20260906030035 88 180 1.0 2.0 0.00 0.00 0.00 61 1013.2
20260906025550 89 183 2.0 2.0 0.00 0.00 0.00 61 1013.2
20260906025113 89 179 2.0 3.0 0.00 0.00 0.00 60 1013.2
20260906024553 89 187 2.0 3.0 0.00 0.00 0.00 59 1013.1
20260906024115 89 184 2.0 3.0 0.00 0.00 0.00 59 1013.0
20260906023535 88 181 1.0 3.0 0.00 0.00 0.00 59 1012.9
20260906023035 88 171 1.0 2.0 0.00 0.00 0.00 58 1012.7
20260906022535 88 181 1.0 2.0 0.00 0.00 0.00 57 1012.7
20260906022034 87 192 1.0 3.0 0.00 0.00 0.00 56 1012.6
20260906021536 87 0.0 0.0 0.00 0.00 0.00 55 1012.5
20260906021034 87 0.0 0.0 0.00 0.00 0.00 55 1012.4
20260906020534 87 0.0 0.0 0.00 0.00 0.00 54 1012.3
20260906020034 88 0.0 0.0 0.00 0.00 0.00 54 1012.1
20260906015534 88 0.0 0.0 0.00 0.00 0.00 54 1012.1
20260906015035 88 0.0 0.0 0.00 0.00 0.00 54 1012.0
20260906014534 89 0.0 0.0 0.00 0.00 0.00 53 1011.9
20260906014034 89 149 0.0 1.0 0.00 0.00 0.00 53 1012.0
20260906013534 89 0.0 0.0 0.00 0.00 0.00 53 1011.9
20260906013034 88 0.0 0.0 0.00 0.00 0.00 54 1011.9
20260906012534 88 0.0 0.0 0.00 0.00 0.00 54 1011.8
20260906012034 89 0.0 0.0 0.00 0.00 0.00 53 1011.7
20260906011535 89 0.0 0.0 0.00 0.00 0.00 53 1011.7
20260906011035 89 0.0 0.0 0.00 0.00 0.00 53 1011.7
20260906010534 90 0.0 0.0 0.00 0.00 0.00 52 1011.7
20260906010035 91 0.0 0.0 0.00 0.00 0.00 51 1011.7
20260906005534 91 0.0 0.0 0.00 0.00 0.00 50 1011.6
20260906005025 92 0.0 0.0 0.00 0.00 0.00 50 1011.6
20260906004629 93 0.0 0.0 0.00 0.00 0.00 49 1011.7
20260906004049 93 148 0.0 1.0 0.00 0.00 0.00 48 1011.5
20260906003554 94 155 0.0 1.0 0.00 0.00 0.00 47 1011.6
20260906003035 94 139 1.0 5.0 0.00 0.00 0.00 47 1011.5
20260906002534 94 144 1.0 2.0 0.00 0.00 0.00 46 1011.5
20260906002054 95 140 1.0 3.0 0.00 0.00 0.00 46 1011.5
20260906001637 95 143 1.0 2.0 0.00 0.00 0.00 45 1011.5
20260906001057 95 133 1.0 5.0 0.00 0.00 0.00 45 1011.5
20260906000535 95 157 1.0 5.0 0.00 0.00 0.00 45 1011.5
20260906000035 96 159 1.0 2.0 0.00 0.00 0.00 45 1011.4
20260905235534 96 161 0.0 1.0 0.00 0.00 0.00 44 1011.4
20260905235034 97 178 1.0 2.0 0.00 0.00 0.00 43 1011.2
20260905234615 97 158 0.0 1.0 0.00 0.00 0.00 42 1011.3
20260905234034 98 145 0.0 1.0 0.00 0.00 0.00 42 1011.4
20260905233554 99 131 1.0 2.0 0.00 0.00 0.00 41 1011.2
20260905233054 99 151 1.0 2.0 0.00 0.00 0.00 39 1011.3
20260905232534 99 98 1.0 3.0 0.00 0.00 0.00 40 1011.2
20260905232034 100 127 1.0 3.0 0.00 0.00 0.00 39 1011.2
20260905231535 100 162 1.0 3.0 0.00 0.00 0.00 39 1011.3
20260905231035 101 153 0.0 2.0 0.00 0.00 0.00 38 1011.1
20260905230534 100 173 1.0 1.0 0.00 0.00 0.00 38 1011.2
20260905230035 101 174 1.0 2.0 0.00 0.00 0.00 39 1011.1
20260905225534 100 173 0.0 1.0 0.00 0.00 0.00 39 1011.3
20260905225134 99 185 0.0 1.0 0.00 0.00 0.00 40 1011.2
20260905224535 99 177 1.0 2.0 0.00 0.00 0.00 40 1011.2
20260905224054 99 157 2.0 5.0 0.00 0.00 0.00 40 1011.2
20260905223554 99 142 1.0 3.0 0.00 0.00 0.00 40 1011.2
20260905223035 100 147 1.0 3.0 0.00 0.00 0.00 40 1011.3
20260905222522 100 144 2.0 3.0 0.00 0.00 0.00 40 1011.4
20260905222105 101 162 1.0 3.0 0.00 0.00 0.00 39 1011.4
20260905221626 101 173 1.0 2.0 0.00 0.00 0.00 39 1011.4
20260905221034 101 198 1.0 2.0 0.00 0.00 0.00 40 1011.4
20260905220534 100 149 2.0 5.0 0.00 0.00 0.00 40 1011.5
20260905220036 100 128 2.0 6.0 0.00 0.00 0.00 40 1011.4
20260905215530 99 189 1.0 2.0 0.00 0.00 0.00 41 1011.4
20260905215134 99 111 2.0 5.0 0.00 0.00 0.00 41 1011.4
20260905214554 100 138 1.0 3.0 0.00 0.00 0.00 40 1011.6
20260905214034 100 125 1.0 3.0 0.00 0.00 0.00 40 1011.5
20260905213534 101 180 2.0 7.0 0.00 0.00 0.00 39 1011.6
20260905213035 102 192 2.0 3.0 0.00 0.00 0.00 39 1011.7
20260905212534 101 177 2.0 3.0 0.00 0.00 0.00 39 1011.7
20260905212121 102 172 1.0 3.0 0.00 0.00 0.00 39 1011.7
20260905211622 101 134 2.0 6.0 0.00 0.00 0.00 40 1011.7
20260905211034 102 129 1.0 5.0 0.00 0.00 0.00 39 1011.8
20260905210535 101 194 1.0 3.0 0.00 0.00 0.00 39 1011.9
20260905210055 100 153 1.0 2.0 0.00 0.00 0.00 40 1011.9
20260905205530 99 106 2.0 8.0 0.00 0.00 0.00 41 1012.0
20260905205113 100 154 3.0 7.0 0.00 0.00 0.00 40 1012.1
20260905204554 100 129 1.0 2.0 0.00 0.00 0.00 40 1012.2
20260905204034 100 167 1.0 3.0 0.00 0.00 0.00 40 1012.4
20260905203534 100 160 2.0 5.0 0.00 0.00 0.00 39 1012.5
20260905203035 101 123 2.0 3.0 0.00 0.00 0.00 39 1012.4
20260905202655 100 227 1.0 2.0 0.00 0.00 0.00 40 1012.6
20260905202141 101 193 1.0 2.0 0.00 0.00 0.00 40 1012.6
20260905201601 100 205 2.0 5.0 0.00 0.00 0.00 41 1012.7
20260905201035 101 159 2.0 3.0 0.00 0.00 0.00 40 1012.8
20260905200535 100 191 1.0 2.0 0.00 0.00 0.00 42 1012.9
20260905200035 101 196 1.0 3.0 0.00 0.00 0.00 40 1012.9
20260905195614 100 185 1.0 2.0 0.00 0.00 0.00 40 1013.0
20260905195046 100 201 1.0 3.0 0.00 0.00 0.00 40 1013.1
20260905194609 100 213 2.0 5.0 0.00 0.00 0.00 40 1013.0
20260905194049 100 197 1.0 3.0 0.00 0.00 0.00 41 1013.2
20260905193534 99 175 2.0 3.0 0.00 0.00 0.00 41 1013.2
20260905193035 100 191 2.0 3.0 0.00 0.00 0.00 41 1013.4
20260905192534 99 197 1.0 3.0 0.00 0.00 0.00 42 1013.5
20260905192034 99 219 2.0 3.0 0.00 0.00 0.00 43 1013.6
20260905191618 99 207 2.0 3.0 0.00 0.00 0.00 44 1013.7
20260905191057 99 167 1.0 2.0 0.00 0.00 0.00 44 1013.8
20260905190534 99 181 1.0 3.0 0.00 0.00 0.00 42 1013.9
20260905190035 99 200 2.0 3.0 0.00 0.00 0.00 44 1013.9
20260905185534 98 195 1.0 2.0 0.00 0.00 0.00 44 1013.9
20260905185034 98 185 1.0 2.0 0.00 0.00 0.00 44 1014.0
20260905184534 99 193 2.0 6.0 0.00 0.00 0.00 41 1014.2
20260905184034 98 174 1.0 3.0 0.00 0.00 0.00 43 1014.2
20260905183535 98 201 2.0 5.0 0.00 0.00 0.00 44 1014.3
20260905183034 98 173 1.0 3.0 0.00 0.00 0.00 45 1014.2
20260905182534 97 180 2.0 3.0 0.00 0.00 0.00 45 1014.3
20260905182034 97 187 2.0 3.0 0.00 0.00 0.00 45 1014.4
20260905181658 98 224 2.0 5.0 0.00 0.00 0.00 46 1014.5
20260905181057 98 197 1.0 3.0 0.00 0.00 0.00 44 1014.5
20260905180554 98 193 2.0 3.0 0.00 0.00 0.00 44 1014.7
20260905180121 97 185 1.0 3.0 0.00 0.00 0.00 45 1014.8
20260905175601 97 185 1.0 2.0 0.00 0.00 0.00 45 1014.8
20260905175034 97 196 1.0 2.0 0.00 0.00 0.00 46 1015.0
20260905174523 96 92 1.0 2.0 0.00 0.00 0.00 47 1014.9
20260905174105 96 204 2.0 3.0 0.00 0.00 0.00 46 1014.9
20260905173535 96 197 1.0 2.0 0.00 0.00 0.00 47 1015.0
20260905173034 96 218 2.0 3.0 0.00 0.00 0.00 46 1015.1
20260905172534 96 183 1.0 3.0 0.00 0.00 0.00 48 1015.0
20260905172034 96 209 1.0 3.0 0.00 0.00 0.00 49 1015.2
20260905171535 96 188 2.0 3.0 0.00 0.00 0.00 49 1015.2
20260905171034 95 179 1.0 2.0 0.00 0.00 0.00 49 1015.3
20260905170522 94 197 2.0 5.0 0.00 0.00 0.00 50 1015.3
20260905170105 94 165 2.0 3.0 0.00 0.00 0.00 50 1015.3
20260905165534 94 141 1.0 7.0 0.00 0.00 0.00 52 1015.3
20260905165034 94 169 2.0 3.0 0.00 0.00 0.00 49 1015.5
20260905164523 94 202 1.0 2.0 0.00 0.00 0.00 50 1015.4
20260905164105 93 192 1.0 2.0 0.00 0.00 0.00 53 1015.4
20260905163534 93 188 1.0 2.0 0.00 0.00 0.00 51 1015.4
20260905163035 93 190 1.0 2.0 0.00 0.00 0.00 51 1015.5
20260905162534 93 177 1.0 2.0 0.00 0.00 0.00 51 1015.5
20260905162034 93 156 2.0 5.0 0.00 0.00 0.00 53 1015.3
20260905161531 93 151 1.0 2.0 0.00 0.00 0.00 55 1015.4
20260905161113 92 158 1.0 1.0 0.00 0.00 0.00 56 1015.4
20260905160553 92 167 0.0 1.0 0.00 0.00 0.00 56 1015.4
20260905160035 91 183 1.0 2.0 0.00 0.00 0.00 57 1015.5
20260905155530 91 179 0.0 1.0 0.00 0.00 0.00 60 1015.4
20260905155113 91 183 1.0 2.0 0.00 0.00 0.00 62 1015.6
20260905154553 90 151 1.0 2.0 0.00 0.00 0.00 61 1015.5
20260905154114 90 184 1.0 2.0 0.00 0.00 0.00 63 1015.5
20260905153618 89 166 0.0 1.0 0.00 0.00 0.00 63 1015.5
20260905153057 89 168 1.0 3.0 0.00 0.00 0.00 64 1015.5
20260905152534 89 167 1.0 2.0 0.00 0.00 0.00 64 1015.5
20260905152122 89 168 1.0 2.0 0.00 0.00 0.00 64 1015.5
20260905151601 88 134 1.0 3.0 0.00 0.00 0.00 66 1015.5
20260905151034 88 198 1.0 1.0 0.00 0.00 0.00 67 1015.6
20260905150522 88 154 1.0 2.0 0.00 0.00 0.00 67 1015.5
20260905150105 87 161 0.0 2.0 0.00 0.00 0.00 68 1015.4
20260905145554 87 167 1.0 2.0 0.00 0.00 0.00 69 1015.5
20260905145026 87 114 0.0 1.0 0.00 0.00 0.00 69 1015.5
20260905144609 86 196 0.0 1.0 0.00 0.00 0.00 71 1015.4
20260905144049 86 154 1.0 2.0 0.00 0.00 0.00 72 1015.5
20260905143530 85 176 0.0 1.0 0.00 0.00 0.00 72 1015.4